sat.trackr.live / text

‹ back to catalog

STARLINK-11714 [DTC]

NORAD 64134 · 2025-111M

PAYLOAD ACTIVE UNKNOWN

§ Identity

Operator
Country
US
Launch date
2025-05-24
Launch site
AFETR
Launch vehicle
Mass (kg)
RCS (m²)

Purposes: comms

External: N2YO · Heavens-Above · Gunter

§ Orbital elements

Epoch: 2026-09-20T19:47:58.942464Z

Period
91.67 min
Inclination
42.9988°
Eccentricity
0.0001066
Mean motion
15.70853850 rev/d
Perigee alt
355.7 km
Apogee alt
357.2 km
Semi-major
6,734.6 km
B*
9.6011e-4
RAAN
237.2052°
Arg perigee
271.7862°
Mean anomaly
88.2883°
Rev number
7,733

§ Raw data

STARLINK-11714 [DTC]1 64134U 25111M   26263.82498776  .00124681  00000+0  96011-3 0  99992 64134  42.9988 237.2052 0001066 271.7862  88.2883 15.70853850 77336

JSON: /api/v1/satellites/64134 · /tle

For live sub-satellite position, see the globe view (requires WebGL).

§ Visibility from observer

Set your observer location to see the next 7 days of passes ≥ 10°. The values pass through the URL so the page stays shareable.

No JS? Fill the form by hand. The geolocation button needs JavaScript.